Location: Unspecified
(0.0000°N, 0.0000°E)
Time: 13:32:04
(UTC+00:00)

Vela 4A - Pass Details

Date: 07 December 2021
Orbit: 58523 x 164212 km, 32.1° (Epoch: 09 January)

Event Time Altitude Azimuth Distance (km) Brightness Sun altitude
Rises 21:58:38 0° 58° (ENE) 128,797 ? -54.5°
Reaches altitude 10° 22:57:26 10° 57° (ENE) 125,046 ? -63.9°
Maximum altitude 05:34:31 59° 356° (N) 101,005 ? -3.9°
Drops below altitude 10° 12:28:57 10° 288° (WNW) 82,495 ? 65.6°
Sets 13:33:34 0° 284° (WNW) 80,202 ? 56.4°
